Whippany, NJ

5:26 PM EDT on August 28, 2016 (GMT -0400)
Morristown Municipal

Weather History for KMMU - September, 2014

Change the Weather History Date:

Tuesday, September 2, 2014

  Actual Average Record
Temperature  
Mean Temperature 80 °F -  
Max Temperature 91 °F 81 °F 96 °F (1943)
Min Temperature 68 °F 58 °F 42 °F (1949)
Cooling Degree Days 14    
Growing Degree Days 30 (Base 50)    
Moisture  
Dew Point 68 °F    
Average Humidity 75    
Maximum Humidity 100    
Minimum Humidity 46    
Precipitation  
Precipitation 0.00 in - - ()
Sea Level Pressure  
Sea Level Pressure 29.89 in    
Wind  
Wind Speed 3 mph (WSW)    
Max Wind Speed 17 mph    
Max Gust Speed 26 mph    
Visibility 7 miles    
Events Fog    
Averages and records for this station are not official NWS values.
T = Trace of Precipitation, MM = Missing Value Source: NWS Daily Summary

Daily Weather History Graph

Daily Weather History Graph

Search for Another Location

Airport or City:

Trip Planner

Search our weather history database for the weather conditions in past years. The results will help you decide how hot, cold, wet, or windy it might be!

Date:

Astronomy

Sep. 02, 2014 Rise Set
Actual Time 6:25 AM EDT 7:28 PM EDT
Civil Twilight 5:57 AM EDT 7:56 PM EDT
Nautical Twilight 5:23 AM EDT 8:29 PM EDT
Astronomical Twilight 4:48 AM EDT 9:04 PM EDT
Moon 2:09 PM EDT (9/2) No Moon Set
Length of Visible Light 13h 58m
Length of Day
13h 02m
First Quarter, 52% of the Moon is Illuminated
Sep 2
First Quarter
Sep 8
Full
Sep 15
Last Quarter
Sep 24
New
Oct 1
First Quarter

Hourly Weather History & Observations

Time (EDT) Temp. Heat Index Dew Point Humidity Pressure Visibility Wind Dir Wind Speed Gust Speed Precip Events Conditions
12:15 AM 73.4 °F - 69.8 °F 88% 29.95 in 4.0 mi Calm Calm - N/A   Clear
12:35 AM 71.6 °F - 68.0 °F 88% 29.94 in 2.5 mi Calm Calm - N/A   Clear
12:55 AM 71.6 °F - 68.0 °F 88% 29.94 in 5.0 mi Calm Calm - N/A   Clear
1:15 AM 71.6 °F - 68.0 °F 88% 29.94 in 4.0 mi Calm Calm - N/A   Clear
1:35 AM 71.6 °F - 68.0 °F 88% 29.93 in 7.0 mi Calm Calm - N/A   Clear
1:55 AM 71.6 °F - 68.0 °F 88% 29.93 in 5.0 mi Calm Calm - N/A   Clear
2:15 AM 71.6 °F - 68.0 °F 88% 29.92 in 5.0 mi Calm Calm - N/A   Clear
2:35 AM 71.6 °F - 68.0 °F 88% 29.93 in 10.0 mi Calm Calm - N/A   Clear
2:55 AM 69.8 °F - 66.2 °F 88% 29.93 in 1.0 mi Calm Calm - N/A   Mostly Cloudy
3:15 AM 69.8 °F - 66.2 °F 88% 29.93 in 0.8 mi Calm Calm - N/A   Mostly Cloudy
3:35 AM 69.8 °F - 68.0 °F 94% 29.92 in 1.2 mi Calm Calm - N/A   Mist
3:55 AM 71.6 °F - 68.0 °F 88% 29.92 in 1.0 mi Calm Calm - N/A   Mist
4:15 AM 69.8 °F - 68.0 °F 94% 29.92 in 7.0 mi Calm Calm - N/A   Clear
4:35 AM 69.8 °F - 68.0 °F 94% 29.91 in 1.2 mi Calm Calm - N/A   Mist
4:55 AM 69.8 °F - 66.2 °F 88% 29.91 in 1.0 mi Calm Calm - N/A   Mostly Cloudy
5:15 AM 69.8 °F - 66.2 °F 88% 29.90 in 0.2 mi Calm Calm - N/A Fog Fog
5:35 AM 69.8 °F - 66.2 °F 88% 29.91 in 5.0 mi Calm Calm - N/A   Scattered Clouds
5:55 AM 68.0 °F - 66.2 °F 94% 29.91 in 1.0 mi Calm Calm - N/A   Overcast
6:15 AM 69.8 °F - 66.2 °F 88% 29.91 in 0.2 mi Calm Calm - N/A Fog Fog
6:35 AM 69.8 °F - 66.2 °F 88% 29.92 in 0.2 mi Calm Calm - N/A Fog Fog
6:45 AM 69.8 °F - 69.8 °F 100% 29.92 in 1.0 mi Calm Calm - N/A   Mostly Cloudy
7:10 AM 69.8 °F - 69.8 °F 100% 29.93 in 4.0 mi Calm Calm - N/A   Overcast
7:45 AM 73.4 °F - 73.4 °F 100% 29.93 in 5.0 mi Calm Calm - N/A   Overcast
8:45 AM 80.6 °F 85.4 °F 73.4 °F 79% 29.94 in 10.0 mi West 6.9 mph - N/A   Clear
9:45 AM 84.2 °F 89.6 °F 71.6 °F 66% 29.94 in 15.0 mi WNW 10.4 mph - N/A   Overcast
10:45 AM 86.0 °F 91.8 °F 71.6 °F 62% 29.94 in 15.0 mi WSW 4.6 mph - N/A   Mostly Cloudy
11:45 AM 87.8 °F 93.8 °F 71.6 °F 58% 29.92 in 15.0 mi West 9.2 mph - N/A   Mostly Cloudy
12:49 PM 89.6 °F 96.2 °F 71.6 °F 55% 29.90 in 10.0 mi SW 4.6 mph - N/A   Scattered Clouds
1:45 PM 89.6 °F 94.7 °F 69.8 °F 52% 29.88 in 15.0 mi West 12.7 mph - N/A   Mostly Cloudy
2:45 PM 89.6 °F 93.4 °F 68.0 °F 49% 29.85 in 15.0 mi SW 11.5 mph 18.4 mph N/A   Mostly Cloudy
3:45 PM 91.4 °F 95.4 °F 68.0 °F 46% 29.84 in 15.0 mi West 12.7 mph 23.0 mph N/A   Mostly Cloudy
4:45 PM 89.6 °F 92.2 °F 66.2 °F 46% 29.83 in 15.0 mi West 11.5 mph 20.7 mph N/A   Partly Cloudy
5:45 PM 89.6 °F 92.2 °F 66.2 °F 46% 29.81 in 15.0 mi West 12.7 mph 18.4 mph N/A   Partly Cloudy
6:45 PM 87.8 °F 90.4 °F 66.2 °F 49% 29.81 in 10.0 mi WSW 9.2 mph - N/A   Partly Cloudy
7:47 PM 84.2 °F 87.3 °F 68.0 °F 58% 29.82 in 10.0 mi SW 5.8 mph - N/A   Partly Cloudy
9:45 PM 84.2 °F 87.3 °F 68.0 °F 58% 29.81 in 10.0 mi WSW 17.3 mph 26.5 mph N/A   Scattered Clouds
10:15 PM 84.2 °F 85.6 °F 64.4 °F 51% 29.81 in 10.0 mi SW 6.9 mph 18.4 mph N/A   Clear
10:35 PM 84.2 °F 85.6 °F 64.4 °F 51% 29.81 in 10.0 mi WSW 13.8 mph 23.0 mph N/A   Clear
10:55 PM 82.4 °F 83.9 °F 64.4 °F 54% 29.81 in 10.0 mi WSW 16.1 mph 20.7 mph N/A   Clear
11:15 PM 80.6 °F 82.3 °F 64.4 °F 58% 29.82 in 10.0 mi WSW 15.0 mph 25.3 mph N/A   Clear
11:35 PM 80.6 °F 82.3 °F 64.4 °F 58% 29.83 in 10.0 mi WSW 11.5 mph 24.2 mph N/A   Clear
11:55 PM 78.8 °F - 64.4 °F 61% 29.84 in 10.0 mi WSW 9.2 mph 16.1 mph N/A   Clear